Change the Weather History Date:

Sunday, April 8, 2012

  Actual Average Record
Temperature  
Mean Temperature 46 °F 41 °F  
Max Temperature 67 °F 56 °F 78 °F (1989)
Min Temperature 25 °F 27 °F 14 °F (1983)
Degree Days  
Heating Degree Days 19 24  
Month to date heating degree days 186 196  
Since 1 July heating degree days 5723 5903  
Cooling Degree Days 0 0  
Month to date cooling degree days 0 0  
Year to date cooling degree days 0 0  
Moisture  
Dew Point 11 °F    
Average Humidity 31    
Maximum Humidity 50    
Minimum Humidity 11    
Precipitation  
Precipitation 0.00 in 0.05 in 1.04 in (1935)
Month to date precipitation T 0.38  
Year to date precipitation 3.22 6.71  
Snow  
Snow 0.00 in 0.30 in 7.40 in (1975)
Month to date snowfall T 2.5  
Since 1 July snowfall 92.5 96.4  
Snow Depth 0.00 in    
Sea Level Pressure  
Sea Level Pressure 30.15 in    
Wind  
Wind Speed 5 mph (SW)    
Max Wind Speed 21 mph    
Max Gust Speed 25 mph    
Visibility 10 miles    
Events      
T = Trace of Precipitation, MM = Missing Value Source: NWS Daily Summary

Daily Weather History Graph

Daily Weather History Graph

Search for Another Location

Airport or City:

Trip Planner

Search our weather history database for the weather conditions in past years. The results will help you decide how hot, cold, wet, or windy it might be!

Date:

Astronomy

Apr. 08, 2012 Rise Set
Actual Time 6:03 AM MST 6:54 PM MST
Civil Twilight 5:37 AM MST 7:20 PM MST
Nautical Twilight 5:06 AM MST 7:50 PM MST
Astronomical Twilight 4:35 AM MST 8:22 PM MST
Moon 9:37 PM MST (4/8) 7:08 AM MST (4/8)
Length of Visible Light 13h 42m
Length of Day
12h 51m
Waning Gibbous, 94% of the Moon is Illuminated
Apr 8
Waning Gibbous
Apr 13
Last Quarter
Apr 21
New
Apr 29
First Quarter
May 5
Full

Hourly Weather History & Observations

Time (MST) Temp. Windchill Dew Point Humidity Pressure Visibility Wind Dir Wind Speed Gust Speed Precip Events Conditions
12:57 AM 28.0 °F - 9.0 °F 45% 30.20 in 10.0 mi Calm Calm - N/A   Clear
1:57 AM 27.0 °F - 8.1 °F 45% 30.17 in 10.0 mi Calm Calm - N/A   Clear
2:57 AM 27.0 °F - 8.1 °F 45% 30.17 in 10.0 mi Calm Calm - N/A   Clear
3:57 AM 26.1 °F - 8.1 °F 47% 30.18 in 10.0 mi Calm Calm - N/A   Clear
4:57 AM 26.1 °F - 8.1 °F 47% 30.16 in 10.0 mi Calm Calm - N/A   Clear
5:57 AM 24.8 °F - 8.6 °F 50% 30.29 in 10.0 mi Calm Calm - N/A   Clear
6:57 AM 28.9 °F - 10.9 °F 47% 30.22 in 10.0 mi Calm Calm - N/A   Clear
7:57 AM 45.0 °F - 10.0 °F 24% 30.20 in 10.0 mi Calm Calm - N/A   Clear
8:57 AM 54.0 °F - 3.9 °F 13% 30.19 in 10.0 mi NE 4.6 mph - N/A   Clear
9:57 AM 59.0 °F - 10.0 °F 14% 30.17 in 10.0 mi Calm Calm - N/A   Clear
10:57 AM 63.0 °F - 12.9 °F 14% 30.16 in 10.0 mi SW 8.1 mph 18.4 mph N/A   Clear
11:57 AM 64.9 °F - 12.0 °F 13% 30.15 in 10.0 mi WSW 15.0 mph 24.2 mph N/A   Clear
12:57 PM 66.0 °F - 12.0 °F 12% 30.14 in 10.0 mi SW 16.1 mph 20.7 mph N/A   Clear
1:57 PM 66.0 °F - 10.0 °F 11% 30.13 in 10.0 mi SW 20.7 mph 24.2 mph N/A   Clear
2:57 PM 64.9 °F - 8.1 °F 11% 30.12 in 10.0 mi SW 18.4 mph 25.3 mph N/A   Clear
3:57 PM 64.9 °F - 10.0 °F 12% 30.11 in 10.0 mi West 6.9 mph 19.6 mph N/A   Clear
4:57 PM 63.0 °F - 10.9 °F 13% 30.12 in 10.0 mi WSW 8.1 mph - N/A   Clear
5:57 PM 62.1 °F - 14.0 °F 15% 30.12 in 10.0 mi WSW 4.6 mph - N/A   Clear
6:57 PM 57.9 °F - 14.0 °F 18% 30.12 in 10.0 mi SSW 3.5 mph - N/A   Clear
7:57 PM 50.0 °F - 16.0 °F 26% 30.09 in 10.0 mi Calm Calm - N/A   Clear
8:57 PM 44.1 °F 42.5 °F 18.0 °F 35% 30.10 in 10.0 mi SW 3.5 mph - N/A   Clear
9:57 PM 42.1 °F - 18.0 °F 38% 30.07 in 10.0 mi Calm Calm - N/A   Clear
10:57 PM 39.9 °F - 16.0 °F 38% 30.06 in 10.0 mi Calm Calm - N/A   Clear
11:57 PM 37.9 °F - 17.1 °F 43% 30.06 in 10.0 mi Calm Calm - N/A   Clear